Powrót do katalogu

SL-16 DEB

AktywnyLEO
NORAD 39881·DEBRIS·🇷🇺 Russia

Wystrzelony Mar 26, 1993 z Baikonur Cosmodrome

Loading…

Następne Przeloty (najbliższe 24 godziny)

TLE

Starzejące sięSource: Space-Track

Epoka: Sep 10, 2026, 04:28 UTC

1 39881U 93016BF  26253.18679990  .00001776  00000-0  97728-3 0  9992
2 39881  70.9869  51.5404 0116925 216.9782 142.3239 14.09580324609508

Śledź SL-16 DEB w czasie rzeczywistym z AllMySat

Download on the App Store